Regional Weather Roundup
Issued by NWS

Home | Current Version | Previous Version | Graphics & Text | Print | Product List | Glossary On
Versions: 1 2 3 4 5 6 7 8 9 10 11 12 13 14 15 16 17 18 19 20 21 22 23 24 25 26 27 28 29 30 31 32 33 34 35 36 37 38 39 40 41 42 43 44 45 46 47 48 49 50
000
ASUS43 KFSD 251602
RWRSD

WEATHER ROUNDUP FOR SOUTH DAKOTA
NATIONAL WEATHER SERVICE SIOUX FALLS SD
1100 AM CDT FRI JUL 25 2014

NOTE: "FAIR" INDICATES FEW OR NO CLOUDS BELOW 12,000 FEET WITH NO
SIGNIFICANT WEATHER AND/OR OBSTRUCTIONS TO VISIBILITY.


SDZ001>005-009-010-012>017-251700-
NORTHWEST AND NORTH CENTRAL SOUTH DAKOTA

CITY           SKY/WX    TMP DP  RH WIND       PRES   REMARKS
BUFFALO          N/A     71  41  33 N7        29.91F
FAITH            N/A     74  45  35 N15       29.94R
MOBRIDGE       SUNNY     76  64  66 NW16G24   29.82R
$$

SDZ012>016-024>037-041>051-057-063-072>074-251700-
SOUTHWEST AND SOUTH CENTRAL SOUTH DAKOTA

CITY           SKY/WX    TMP DP  RH WIND       PRES   REMARKS
RAPID CTY ARPT SUNNY     73  41  31 N12       30.00F
PIERRE         MOSUNNY   78  67  68 NW25      29.83R
CUSTER         SUNNY     71  42  35 E9        30.10F
ELLSWORTH AFB  SUNNY     73  38  27 N12       30.00F
PHILIP         SUNNY     79  42  26 N20       29.92S
PINE RIDGE     SUNNY     73  43  33 N14       30.00F
WINNER         FAIR      82  66  58 NW16G23   29.83S
$$

SDZ004>011-016>023-039-040-251700-
NORTHEAST SOUTH DAKOTA

CITY           SKY/WX    TMP DP  RH WIND       PRES   REMARKS
ABERDEEN       CLOUDY    68  66  93 N15       29.78R
WATERTOWN      PTSUNNY   74  66  76 S5        29.78R
SISSETON         N/A     74  69  85 S5        29.74S
$$

SDZ017-020-022-023-036>040-048>070-251700-
SOUTHEAST SOUTH DAKOTA

CITY           SKY/WX    TMP DP  RH WIND       PRES   REMARKS
SIOUX FALLS    MOSUNNY   75  67  76 S9        29.78R
HURON          SUNNY     78  67  68 MISG      29.76S
CHAMBERLAIN    SUNNY     79  66  64 N12       29.79S
MITCHELL       SUNNY     78  68  71 S7        29.77R
YANKTON        SUNNY     75  66  73 SE10      29.76R
$$

ABBREVIATIONS USED IN REMARKS
   TC - TEMPERATURE IN CELSIUS
  WCI - WIND CHILL INDEX
   HX - HEAT INDEX
  VSB - VISIBILITY



USA.gov is the U.S. government's official web portal to all federal, state and local government web resources and services.